Regional Weather Roundup
Issued by NWS

Home | Current Version | Previous Version | Text Only | Print | Product List | Glossary On
Versions: 1 2 3 4 5 6 7 8 9 10 11 12 13 14 15 16 17 18 19 20 21 22 23 24 25 26 27 28 29 30 31 32 33 34 35 36 37 38 39 40 41 42 43 44 45 46 47 48 49 50
000
ASCA42 TJSJ 131310
RWRPR
PUERTO RICO/U.S. VIRGIN ISLANDS HOURLY WEATHER ROUNDUP
NATIONAL WEATHER SERVICE SAN JUAN PR
900 AM AST SAT FEB 13 2016

PRZ001-004-131400-
PUERTO RICO

CITY           SKY/WX    TMP DP  RH WIND       PRES   REMARKS
SAN JUAN LMM   MOSUNNY   79  70  73 E8        30.06R
AGUADILLA      SUNNY     75  63  64 E5        30.07R
CEIBA          PTSUNNY   75  70  83 E10       30.09R
$$

PRZ006-007-131400-
U.S. VIRGIN ISLANDS

CITY           SKY/WX    TMP DP  RH WIND       PRES   REMARKS
CHARLOTTE AMA  CLOUDY    77  66  69 E6        30.06R
CHRISTIANSTED  MOSUNNY   81  68  65 E13       30.07R
$$

HOURLY WEATHER ROUNDUP FOR THE NEWS MEDIA

CITY           SKY/WX    TMP DP  RH WIND       PRES   REMARKS
ORLANDO        SUNNY     59  56  89 NW7       30.22R
NEW YORK       MOSUNNY   23   2  40 NW29G41   29.97R WCI   6
NEWARK         MOSUNNY   22   2  42 NW22G30   29.99R WCI   6
CHICAGO        PTCLDY     2 -10  57 NW12      30.56R WCI -15
HARTFORD       SUNNY     18  10  71 W9        29.81R WCI   7
BOSTON         PTSUNNY   20   8  60 NW8       29.81S WCI  10
DALLAS         PTCLDY    42  29  59 NE5       30.39S
PHILADELPHIA   MOSUNNY   22   1  40 NW22G32   30.09R WCI   6
LOS ANGELES    FOG       52  51  97 CALM      30.08S VSB 1/4
WASHINGTON DC  MOCLDY    20   4  50 NW13      30.20R WCI   7


USA.gov is the U.S. government's official web portal to all federal, state and local government web resources and services.